Location: Piotrkow Trybunalski
(51.4000°N, 19.6830°E)
Time: 23:05:28
(UTC+01:00)

Explorer 7 - Pass Details

Date: 23 December 2025
Orbit: 433 x 550 km, 50.2° (Epoch: 13 January)

Event Time Altitude Azimuth Distance (km) Brightness Sun altitude
Rises 19:02:03 0° 278° (W) 2,446 11.3 -30.7°
Reaches altitude 10° 19:04:54 10° 253° (WSW) 1,555 9.9 -31.1°
Enters shadow 19:05:32 12° 244° (WSW) 1,423 9.6 -31.2°
